{"data":{"norad_id":65723,"epoch":"2026-09-20T22:09:22.529952Z","epoch_age_seconds":113136,"freshness":"FRESH","line1":"1 65723U 25214M   26263.92317743  .00001010  00000+0  14849-3 0  9992","line2":"2 65723  49.9827 224.2328 0009858 234.0413 125.9611 14.83601329 53723","mean_motion":14.83601329,"eccentricity":0.0009858,"inclination_deg":49.9827,"raan_deg":224.2328,"arg_perigee_deg":234.0413,"mean_anomaly_deg":125.9611,"bstar":0.00014849,"rev_number":5372,"period_min":97.061115533687,"perigee_km":611.08271890801,"apogee_km":624.87626218077,"semimajor_km":6996.1164905444,"source":"CELESTRAK","updated_at":"2026-09-21T09:00:15.524767Z"}}